Location: Cabeza Gorda
(40.0667°N, 4.9667°W)
Time: 19:30:49
(UTC+00:00)

IRS-1D - Pass Details

Date: 15 January 2026
Orbit: 737 x 810 km, 98.8° (Epoch: 10 February)

Event Time Altitude Azimuth Distance (km) Brightness Sun altitude
Rises 05:23:04 0° 14° (NNE) 3,331 6.9 -25.8°
Reaches altitude 10° 05:25:24 10° 15° (NNE) 2,400 6.1 -25.3°
Maximum altitude 05:30:45 84° 104° (ESE) 820 3.6 -24.3°
Drops below altitude 10° 05:36:02 10° 193° (SSW) 2,382 6.0 -23.3°
Sets 05:38:21 0° 194° (SSW) 3,304 6.7 -22.9°
